Weather History for Mount Holly, NJ

Change the Weather History Date:

Saturday, January 19, 2013

  Actual Average (KWRI) Record (KWRI)
Temperature  
Mean Temperature 38 °F -  
Max Temperature 52 °F 35 °F 52 °F (2013)
Min Temperature 25 °F 20 °F 3 °F (2003)
Degree Days  
Heating Degree Days 26    
Moisture  
Dew Point 24 °F    
Average Humidity 56    
Maximum Humidity 72    
Minimum Humidity 35    
Precipitation  
Precipitation 0.00 in - - ()
Sea Level Pressure  
Sea Level Pressure 30.22 in    
Wind  
Wind Speed 7 mph (SSW)    
Max Wind Speed 14 mph    
Max Gust Speed 24 mph    
Visibility 10 miles    
Events      
Averages and records for this station are not official NWS values.
T = Trace of Precipitation, MM = Missing Value Source: NWS Daily Summary

Daily Weather History Graph

Daily Weather History Graph

Search for Another Location

Airport:

Trip Planner

Search our weather history database for the weather conditions in past years. The results will help you decide how hot, cold, wet, or windy it might be!

Date:

Astronomy

Jan. 19, 2013 Rise Set
Actual Time 7:17 AM EST 5:03 PM EST
Civil Twilight 6:47 AM EST 5:33 PM EST
Nautical Twilight 6:14 AM EST 6:06 PM EST
Astronomical Twilight 5:42 AM EST 6:38 PM EST
Moon 11:28 AM EST (1/19) 12:49 AM EST (1/19)
Length of Visible Light 10h 45m
Length of Day
9h 46m
First Quarter, 57% of the Moon is Illuminated
Jan 19
First Quarter
Jan 26
Full
Feb 3
Last Quarter
Feb 10
New
Feb 17
First Quarter

Hourly Weather History & Observations

Time (EST) Temp. Windchill Dew Point Humidity Pressure Visibility Wind Dir Wind Speed Gust Speed Precip Events Conditions
12:54 AM 25.0 °F 19.3 °F 15.1 °F 66% 30.43 in 10.0 mi South 4.6 mph - N/A   Clear
1:54 AM 26.1 °F 21.9 °F 16.0 °F 66% 30.42 in 10.0 mi South 3.5 mph - N/A   Clear
2:54 AM 26.1 °F 21.9 °F 17.1 °F 69% 30.40 in 10.0 mi South 3.5 mph - N/A   Clear
3:54 AM 28.0 °F 21.7 °F 19.0 °F 69% 30.37 in 10.0 mi Variable 5.8 mph - N/A   Clear
4:54 AM 30.0 °F 23.2 °F 21.0 °F 69% 30.36 in 10.0 mi SSW 6.9 mph - N/A   Clear
5:54 AM 32.0 °F 25.6 °F 23.0 °F 69% 30.35 in 10.0 mi SSW 6.9 mph - N/A   Clear
6:54 AM 33.1 °F 26.9 °F 24.1 °F 70% 30.35 in 10.0 mi SSW 6.9 mph - N/A   Clear
7:54 AM 33.1 °F 26.1 °F 25.0 °F 72% 30.34 in 10.0 mi SSW 8.1 mph - N/A   Clear
8:54 AM 37.0 °F 31.0 °F 26.1 °F 65% 30.33 in 10.0 mi SSW 8.1 mph 18.4 mph N/A   Clear
9:54 AM 39.9 °F 33.9 °F 26.1 °F 58% 30.33 in 10.0 mi SW 9.2 mph 23.0 mph N/A   Clear
10:54 AM 43.0 °F 36.0 °F 25.0 °F 49% 30.29 in 10.0 mi SW 13.8 mph 24.2 mph N/A   Clear
11:54 AM 46.0 °F 41.0 °F 25.0 °F 44% 30.24 in 10.0 mi SW 10.4 mph 20.7 mph N/A   Clear
12:54 PM 48.9 °F - 25.0 °F 39% 30.20 in 10.0 mi SW 13.8 mph 21.9 mph N/A   Clear
1:54 PM 50.0 °F - 25.0 °F 38% 30.17 in 10.0 mi SW 9.2 mph 19.6 mph N/A   Clear
2:54 PM 52.0 °F - 25.0 °F 35% 30.14 in 10.0 mi SW 12.7 mph 19.6 mph N/A   Clear
3:54 PM 51.1 °F - 25.0 °F 36% 30.12 in 10.0 mi SW 9.2 mph 16.1 mph N/A   Clear
4:54 PM 48.0 °F - 26.1 °F 42% 30.10 in 10.0 mi SW 5.8 mph - N/A   Clear
5:54 PM 44.1 °F - 27.0 °F 51% 30.09 in 10.0 mi Calm Calm - N/A   Clear
6:54 PM 43.0 °F 40.3 °F 27.0 °F 53% 30.09 in 10.0 mi South 4.6 mph - N/A   Clear
7:54 PM 42.1 °F 39.2 °F 27.0 °F 55% 30.08 in 10.0 mi SSW 4.6 mph - N/A   Clear
8:54 PM 41.0 °F 34.7 °F 27.0 °F 57% 30.05 in 10.0 mi SSW 10.4 mph 20.7 mph N/A   Clear
9:54 PM 42.1 °F 37.7 °F 27.0 °F 55% 30.03 in 10.0 mi Variable 6.9 mph - N/A   Clear
10:54 PM 41.0 °F 36.4 °F 28.0 °F 60% 30.00 in 10.0 mi SSW 6.9 mph - N/A   Clear
11:54 PM 41.0 °F 35.8 °F 28.0 °F 60% 29.95 in 10.0 mi SSW 8.1 mph 19.6 mph N/A   Clear